Time,TemperatureF,DewpointF,PressureIn,WindDirection,WindDirectionDegrees,WindSpeedMPH,WindSpeedGustMPH,Humidity,HourlyPrecipIn,Conditions,Clouds,dailyrainin,SoftwareType,DateUTC
2013-05-16 00:00:00,53.0,-99.9,-100.00,ENE,68,3.0,-999.0,-999,-99.99,,,-99.99,,2013-05-16 07:00:00,
2013-05-16 01:00:00,53.0,-99.9,-100.00,East,81,3.0,-999.0,-999,-99.99,,,-99.99,,2013-05-16 08:00:00,
2013-05-16 02:00:00,53.0,-99.9,-100.00,ENE,70,3.0,-999.0,-999,-99.99,,,-99.99,,2013-05-16 09:00:00,
2013-05-16 03:00:00,53.0,-99.9,-100.00,East,97,2.0,-999.0,-999,-99.99,,,-99.99,,2013-05-16 10:00:00,
2013-05-16 04:00:00,52.0,-99.9,-100.00,East,88,2.0,-999.0,-999,-99.99,,,-99.99,,2013-05-16 11:00:00,
2013-05-16 05:00:00,52.0,-99.9,-100.00,East,80,3.0,-999.0,-999,-99.99,,,-99.99,,2013-05-16 12:00:00,
2013-05-16 08:00:00,53.0,-99.9,-100.00,SW,221,2.0,-999.0,-999,-99.99,,,-99.99,,2013-05-16 15:00:00,
2013-05-16 09:00:00,53.0,-99.9,-100.00,WSW,249,3.0,-999.0,-999,-99.99,,,-99.99,,2013-05-16 16:00:00,
2013-05-16 10:00:00,54.0,-99.9,-100.00,North,10,1.0,-999.0,-999,-99.99,,,-99.99,,2013-05-16 17:00:00,
2013-05-16 11:00:00,57.0,-99.9,-100.00,WNW,284,3.0,-999.0,-999,-99.99,,,-99.99,,2013-05-16 18:00:00,
2013-05-16 12:00:00,-999.0,-99.9,-100.00,West,269,5.0,-999.0,-999,-99.99,,,-99.99,,2013-05-16 19:00:00,
2013-05-16 13:00:00,59.0,-99.9,-100.00,WSW,257,7.0,-999.0,-999,-99.99,,,-99.99,,2013-05-16 20:00:00,
2013-05-16 14:00:00,56.0,-99.9,-100.00,SW,226,9.0,-999.0,-999,-99.99,,,-99.99,,2013-05-16 21:00:00,
2013-05-16 15:00:00,55.0,-99.9,-100.00,SSW,198,8.0,-999.0,-999,-99.99,,,-99.99,,2013-05-16 22:00:00,
2013-05-16 16:00:00,56.0,-99.9,-100.00,SSW,204,8.0,-999.0,-999,-99.99,,,-99.99,,2013-05-16 23:00:00,
2013-05-16 18:00:00,56.0,-99.9,-100.00,SW,227,6.0,-999.0,-999,-99.99,,,-99.99,,2013-05-17 01:00:00,
2013-05-16 19:00:00,54.0,-99.9,-100.00,SSW,195,3.0,-999.0,-999,-99.99,,,-99.99,,2013-05-17 02:00:00,
2013-05-16 20:00:00,54.0,-99.9,-100.00,SSE,153,6.0,-999.0,-999,-99.99,,,-99.99,,2013-05-17 03:00:00,
2013-05-16 21:00:00,54.0,-99.9,-100.00,South,173,5.0,-999.0,-999,-99.99,,,-99.99,,2013-05-17 04:00:00,
2013-05-16 22:00:00,53.0,-99.9,-100.00,South,189,6.0,-999.0,-999,-99.99,,,-99.99,,2013-05-17 05:00:00,
2013-05-16 23:00:00,52.0,-99.9,-100.00,South,181,7.0,-999.0,-999,-99.99,,,-99.99,,2013-05-17 06:00:00,